Hourly Data Report for June 06, 2021

VINELAND STATION RCS
ONTARIO
Current Station Operator: ECCC - MSC

43°11'00.000" N
79°24'00.000" W
79.20 m
6139148
71171
XVN

Download Data

Hourly Data (June 2021)
Hourly Data Report for June 6, 2021
TIME
LST
Temp Definition
°C
Dew Point Definition
°C
Rel Hum Definition
%
Precip. Amount Definition
mm

Wind Dir Definition
10's deg

Wind Spd Definition
km/h
Visibility Definition
km
Stn Press Definition
kPa
Hmdx Definition


Wind Chill Definition


Weather Definition


00:00 21.4 13.8 62 0.0 20 15   100.34 25   LegendNANA
01:00 21.0 13.7 63 0.0 22 17   100.34     LegendNANA
02:00 21.3 13.9 63 0.0 22 17   100.34 25   LegendNANA
03:00 21.8 14.2 62 0.0 22 20   100.33 25   LegendNANA
04:00 22.0 14.2 61 0.0 22 21   100.35 25   LegendNANA
05:00 21.8 14.2 62 0.0 23 22   100.40 25   LegendNANA
06:00 22.1 14.7 63 0.0 22 19   100.44 26   LegendNANA
07:00 23.1 15.1 61 0.0 22 24   100.49 27   LegendNANA
08:00 25.1 16.1 57 0.0 23 21   100.53 30   LegendNANA
09:00 27.3 16.5 52 0.0 23 18   100.55 32   LegendNANA
10:00 28.8 17.9 52 0.0 23 17   100.51 35   LegendNANA
11:00 29.5 18.2 51 0.0 22 22   100.50 36   LegendNANA
12:00 29.6 18.3 51 0.0 21 23   100.49 36   LegendNANA
13:00 29.2 17.3 49 0.0 21 26   100.48 35   LegendNANA
14:00 30.1 16.8 45 0.0 21 29   100.48 35   LegendNANA
15:00 30.4 16.3 43 0.0 22 28   100.46 35   LegendNANA
16:00 30.2 15.3 40 0.0 21 25   100.45 34   LegendNANA
17:00 30.0 14.5 39 0.0 21 21   100.41 34   LegendNANA
18:00 29.3 13.6 38 0.0 22 20   100.41 32   LegendNANA
19:00 28.3 14.0 42 0.0 22 16   100.43 32   LegendNANA
20:00 26.4 13.9 46 0.0 21 14   100.45 30   LegendNANA
21:00 24.2 14.0 53 0.0 20 14   100.51 28   LegendNANA
22:00 21.8 14.2 62 0.0 19 11   100.57 25   LegendNANA
23:00 20.8 14.1 65 0.0 20 13   100.56     LegendNANA

Notes on Data Quality.

Legend

  • E = Estimated
  • M = Missing
  • NA = Not Available*
  • [empty] = Indicates an unobserved value
Date modified: